sat.trackr.live / text

‹ back to catalog

STARLINK-32240

NORAD 60438 · 2024-144P

PAYLOAD ACTIVE UNKNOWN

§ Identity

Operator
Country
US
Launch date
2024-08-12
Launch site
AFETR
Launch vehicle
Mass (kg)
RCS (m²)

Purposes: comms

External: N2YO · Heavens-Above · Gunter

§ Orbital elements

Epoch: 2026-09-21T16:49:15.836736Z

Period
93.85 min
Inclination
53.1604°
Eccentricity
0.0001029
Mean motion
15.34385977 rev/d
Perigee alt
462.0 km
Apogee alt
463.4 km
Semi-major
6,840.9 km
B*
-6.8760e-6
RAAN
22.1227°
Arg perigee
82.4023°
Mean anomaly
277.7096°
Rev number
11,942

§ Raw data

STARLINK-322401 60438U 24144P   26264.70087774 -.00000608  00000+0 -68760-5 0  99932 60438  53.1604  22.1227 0001029  82.4023 277.7096 15.34385977119426

JSON: /api/v1/satellites/60438 · /tle

For live sub-satellite position, see the globe view (requires WebGL).

§ Visibility from observer

Set your observer location to see the next 7 days of passes ≥ 10°. The values pass through the URL so the page stays shareable.

No JS? Fill the form by hand. The geolocation button needs JavaScript.